QPF
0.01 0.02 0.03 0.03 0.03 0.03 0.03 0.02 0.02 0.02 0.01 0.01 0.01 0.01 0.01 0.01 0.01 0.01 0.01 0.01 0.01 0.01 0.01 0.01 0.01 0.00 0.00 0.00 0.00 0.00 0.00 0.01 0.01 0.00 0.00 0.01 0.01 0.01 0.01 0.01 0.01 0.01 0.02
0.01 0.02 0.03 0.02 0.01 0.01 0.01 0.02 0.02 0.02 0.01 0.01 0.01 0.01 0.01 0.01 0.01 0.01 0.01 0.01 0.01 0.01 0.00 0.00 0.00 0.00 0.00 0.00 0.00 0.00 0.00 0.00 0.00 0.00 0.00 0.00 0.01 0.01 0.01 0.01 0.00 0.01 0.01
0.01 0.02 0.03 0.02 0.01 0.01 0.01 0.01 0.01 0.01 0.01 0.01 0.00 0.01 0.01 0.00 0.00 0.00 0.01 0.00 0.00 0.00 0.00 0.00 0.00 0.00 0.00 0.00 0.00 0.00 0.00 0.00 0.00 0.00 0.00 0.00 0.00 0.01 0.01 0.01 0.01 0.01 0.01
0.01 0.02 0.02 0.02 0.01 0.01 0.01 0.01 0.01 0.01 0.01 0.01 0.00 0.00 0.00 0.00 0.00 0.00 0.00 0.00 0.00 0.00 0.00 0.00 0.00 0.00 0.00 0.00 0.00 0.00 0.00 0.00 0.01 0.00 0.00 0.00 0.00 0.00 0.01 0.01 0.01 0.01 0.00
0.01 0.01 0.01 0.01 0.01 0.00 0.00 0.00 0.01 0.01 0.01 0.00 0.00 0.00 0.00 0.00 0.00 0.00 0.00 0.00 0.00 0.00 0.00 0.00 0.01 0.01 0.01 0.00 0.00 0.00 0.00 0.00 0.00 0.00 0.00 0.00 0.00 0.00 0.00 0.01 0.01 0.00 0.00
0.01 0.01 0.01 0.01 0.00 0.00 0.00 0.00 0.00 0.00 0.00 0.00 0.00 0.00 0.00 0.00 0.00 0.00 0.00 0.00 0.00 0.00 0.00 0.00 0.01 0.01 0.01 0.00 0.00 0.00 0.00 0.00 0.00 0.00 0.00 0.00 0.00 0.00 0.00 0.00 0.00 0.00 0.00
0.01 0.01 0.01 0.00 0.00 0.00 0.00 0.00 0.00 0.00 0.00 0.00 0.00 0.00 0.00 0.00 0.00 0.00 0.00 0.00 0.00 0.00 0.00 0.00 0.00 0.00 0.00 0.00 0.00 0.00 0.00 0.00 0.00 0.00 0.01 0.01 0.00 0.01 0.01 0.00 0.00 0.00 0.00
0.01 0.01 0.00 0.00 0.00 0.00 0.00 0.00 0.00 0.00 0.00 0.00 0.00 0.00 0.00 0.00 0.00 0.00 0.00 0.00 0.00 0.00 0.00 0.00 0.00 0.00 0.00 0.00 0.01 0.00 0.00 0.01 0.01 0.00 0.01 0.01 0.01 0.01 0.01 0.01 0.01 0.00 0.00
0.00 0.00 0.00 0.00 0.00 0.01 0.01 0.01 0.01 0.01 0.00 0.00 0.00 0.00 0.00 0.01 0.01 0.01 0.01 0.00 0.00 0.00 0.00 0.00 0.00 0.00 0.01 0.01 0.00 0.00 0.01 0.01 0.00 0.00 0.00 0.00 0.00 0.00 0.00 0.00 0.00 0.00 0.00
0.00 0.01 0.01 0.00 0.00 0.00 0.01 0.01 0.01 0.01 0.01 0.01 0.01 0.00 0.01 0.01 0.01 0.01 0.00 0.00 0.00 0.00 0.00 0.00 0.00 0.00 0.00 0.00 0.00 0.00 0.01 0.01 0.01 0.00 0.00 0.00 0.00 0.00 0.00 0.00 0.00 0.00 0.01
0.00 0.00 0.00 0.00 0.01 0.01 0.01 0.01 0.01 0.01 0.01 0.01 0.01 0.01 0.01 0.01 0.01 0.00 0.01 0.00 0.00 0.00 0.00 0.01 0.01 0.01 0.01 0.01 0.00 0.00 0.01 0.01 0.00 0.00 0.00 0.00 0.00 0.00 0.00 0.00 0.00 0.00 0.01
0.00 0.00 0.01 0.01 0.02 0.02 0.01 0.01 0.01 0.01 0.02 0.02 0.02 0.01 0.01 0.01 0.01 0.00 0.01 0.00 0.00 0.00 0.01 0.02 0.02 0.02 0.01 0.01 0.00 0.00 0.00 0.00 0.00 0.00 0.00 0.00 0.00 0.00 0.00 0.00 0.01 0.01 0.01
0.01 0.00 0.01 0.01 0.02 0.02 0.01 0.01 0.01 0.01 0.02 0.01 0.01 0.01 0.01 0.01 0.01 0.01 0.01 0.01 0.01 0.01 0.01 0.02 0.02 0.01 0.01 0.00 0.00 0.00 0.00 0.00 0.00 0.01 0.01 0.00 0.00 0.01 0.01 0.01 0.02 0.02 0.02
0.01 0.01 0.01 0.01 0.01 0.01 0.02 0.01 0.01 0.01 0.01 0.01 0.01 0.01 0.01 0.01 0.01 0.01 0.01 0.01 0.01 0.00 0.00 0.01 0.01 0.01 0.00 0.00 0.00 0.00 0.00 0.00 0.01 0.01 0.01 0.01 0.01 0.01 0.01 0.01 0.02 0.02 0.02
0.02 0.01 0.02 0.02 0.02 0.02 0.01 0.02 0.02 0.02 0.02 0.01 0.01 0.01 0.01 0.01 0.02 0.02 0.02 0.02 0.02 0.02 0.01 0.01 0.01 0.01 0.01 0.01 0.02 0.01 0.01 0.01 0.01 0.01 0.01 0.01 0.01 0.01 0.01 0.01 0.02 0.02 0.02
0.02 0.02 0.02 0.02 0.02 0.02 0.03 0.03 0.03 0.02 0.02 0.02 0.01 0.02 0.02 0.02 0.02 0.02 0.02 0.02 0.02 0.02 0.01 0.01 0.01 0.01 0.02 0.02 0.02 0.03 0.02 0.02 0.02 0.02 0.02 0.01 0.01 0.01 0.02 0.02 0.03 0.03 0.03
0.04 0.03 0.03 0.03 0.03 0.03 0.04 0.03 0.03 0.03 0.02 0.02 0.02 0.02 0.02 0.02 0.02 0.02 0.01 0.01 0.01 0.01 0.00 0.01 0.01 0.02 0.02 0.03 0.03 0.03 0.03 0.03 0.02 0.02 0.02 0.02 0.02 0.02 0.02 0.02 0.03 0.04 0.04
0.06 0.05 0.04 0.03 0.03 0.04 0.03 0.03 0.03 0.03 0.03 0.03 0.03 0.03 0.02 0.02 0.02 0.02 0.01 0.01 0.01 0.01 0.00 0.01 0.02 0.02 0.02 0.02 0.02 0.02 0.02 0.02 0.02 0.03 0.03 0.03 0.03 0.03 0.03 0.03 0.04 0.05 0.06
0.05 0.05 0.05 0.04 0.04 0.04 0.04 0.03 0.03 0.03 0.04 0.04 0.04 0.03 0.02 0.01 0.01 0.01 0.01 0.01 0.01 0.02 0.02 0.02 0.03 0.03 0.03 0.03 0.03 0.03 0.03 0.02 0.03 0.03 0.04 0.04 0.04 0.05 0.05 0.05 0.05 0.05 0.05
0.05 0.05 0.05 0.05 0.05 0.04 0.04 0.04 0.05 0.05 0.05 0.04 0.04 0.03 0.02 0.02 0.02 0.02 0.02 0.02 0.02 0.03 0.03 0.03 0.03 0.03 0.02 0.02 0.02 0.02 0.02 0.03 0.03 0.03 0.04 0.05 0.05 0.06 0.05 0.05 0.05 0.05 0.05
0.04 0.04 0.04 0.05 0.05 0.05 0.05 0.05 0.04 0.04 0.04 0.04 0.04 0.03 0.03 0.02 0.03 0.03 0.03 0.03 0.03 0.03 0.03 0.02 0.02 0.02 0.02 0.02 0.02 0.02 0.02 0.03 0.03 0.04 0.05 0.05 0.04 0.04 0.04 0.04 0.04 0.05 0.05
0.02 0.02 0.03 0.03 0.03 0.03 0.03 0.03 0.02 0.02 0.03 0.03 0.03 0.03 0.03 0.02 0.02 0.02 0.03 0.03 0.04 0.03 0.03 0.03 0.03 0.03 0.03 0.04 0.04 0.04 0.04 0.03 0.04 0.05 0.04 0.04 0.04 0.04 0.04 0.04 0.04 0.04 0.05
0.02 0.02 0.02 0.02 0.02 0.03 0.03 0.03 0.02 0.02 0.02 0.02 0.01 0.01 0.02 0.02 0.02 0.02 0.02 0.03 0.03 0.03 0.03 0.02 0.02 0.02 0.02 0.02 0.02 0.03 0.03 0.03 0.03 0.03 0.03 0.03 0.04 0.04 0.04 0.04 0.04 0.04 0.04
0.03 0.03 0.03 0.03 0.03 0.03 0.03 0.02 0.02 0.02 0.02 0.02 0.02 0.01 0.02 0.02 0.02 0.02 0.02 0.02 0.02 0.02 0.01 0.01 0.01 0.02 0.02 0.02 0.03 0.03 0.03 0.03 0.02 0.03 0.03 0.03 0.04 0.04 0.05 0.04 0.03 0.03 0.03
0.05 0.05 0.05 0.04 0.04 0.04 0.04 0.03 0.03 0.03 0.03 0.03 0.03 0.02 0.02 0.02 0.02 0.02 0.02 0.02 0.01 0.01 0.01 0.01 0.01 0.01 0.01 0.01 0.02 0.03 0.02 0.01 0.02 0.02 0.02 0.02 0.02 0.02 0.03 0.03 0.04 0.04 0.04
0.05 0.05 0.04 0.03 0.03 0.04 0.04 0.03 0.03 0.03 0.03 0.03 0.03 0.03 0.03 0.03 0.02 0.02 0.02 0.01 0.01 0.01 0.01 0.01 0.01 0.01 0.01 0.01 0.01 0.01 0.01 0.01 0.00 0.01 0.01 0.01 0.01 0.02 0.02 0.02 0.03 0.04 0.04
MSLP
1012.62 1013.07 1013.54 1014.02 1014.48 1014.91 1015.31 1015.70 1016.07 1016.46 1016.86 1017.28 1017.70 1018.10 1018.48 1018.80 1019.06 1019.25 1019.37 1019.45 1019.49 1019.52 1019.55 1019.59 1019.64 1019.70 1019.76 1019.81 1019.83 1019.82 1019.77 1019.68 1019.56 1019.41 1019.24 1019.07 1018.89 1018.73 1018.58 1018.46 1018.37 1018.31 1018.28
1012.24 1012.66 1013.11 1013.57 1014.02 1014.45 1014.86 1015.26 1015.65 1016.04 1016.45 1016.87 1017.29 1017.70 1018.08 1018.42 1018.70 1018.93 1019.10 1019.22 1019.31 1019.38 1019.44 1019.50 1019.57 1019.64 1019.70 1019.74 1019.77 1019.76 1019.71 1019.64 1019.52 1019.38 1019.22 1019.04 1018.85 1018.67 1018.49 1018.32 1018.17 1018.05 1017.95
1011.96 1012.38 1012.82 1013.27 1013.72 1014.15 1014.56 1014.95 1015.34 1015.74 1016.14 1016.54 1016.96 1017.36 1017.74 1018.09 1018.39 1018.64 1018.84 1018.99 1019.11 1019.21 1019.29 1019.37 1019.44 1019.51 1019.57 1019.62 1019.64 1019.63 1019.60 1019.53 1019.43 1019.30 1019.15 1018.98 1018.79 1018.60 1018.39 1018.19 1018.00 1017.81 1017.64
1011.72 1012.17 1012.63 1013.08 1013.53 1013.95 1014.35 1014.74 1015.13 1015.51 1015.90 1016.30 1016.70 1017.09 1017.47 1017.82 1018.12 1018.38 1018.60 1018.77 1018.90 1019.00 1019.09 1019.17 1019.24 1019.31 1019.36 1019.40 1019.42 1019.42 1019.39 1019.34 1019.25 1019.14 1019.00 1018.84 1018.66 1018.47 1018.26 1018.04 1017.81 1017.57 1017.34
1011.43 1011.93 1012.42 1012.89 1013.34 1013.77 1014.17 1014.55 1014.93 1015.30 1015.69 1016.08 1016.47 1016.86 1017.23 1017.57 1017.87 1018.13 1018.34 1018.50 1018.63 1018.73 1018.81 1018.88 1018.94 1019.00 1019.05 1019.08 1019.10 1019.11 1019.08 1019.04 1018.97 1018.87 1018.75 1018.60 1018.43 1018.24 1018.02 1017.79 1017.54 1017.27 1016.99
1010.99 1011.54 1012.08 1012.58 1013.06 1013.49 1013.90 1014.29 1014.67 1015.05 1015.43 1015.82 1016.21 1016.60 1016.96 1017.30 1017.59 1017.83 1018.03 1018.18 1018.29 1018.37 1018.43 1018.48 1018.53 1018.57 1018.62 1018.65 1018.67 1018.68 1018.67 1018.63 1018.56 1018.47 1018.36 1018.21 1018.05 1017.86 1017.65 1017.41 1017.14 1016.85 1016.55
1010.36 1010.97 1011.55 1012.09 1012.59 1013.05 1013.48 1013.88 1014.28 1014.67 1015.06 1015.46 1015.86 1016.25 1016.62 1016.94 1017.22 1017.45 1017.63 1017.75 1017.84 1017.90 1017.94 1017.97 1018.01 1018.05 1018.09 1018.12 1018.15 1018.17 1018.15 1018.12 1018.05 1017.96 1017.83 1017.69 1017.52 1017.32 1017.11 1016.87 1016.60 1016.31 1015.98
1009.53 1010.19 1010.81 1011.39 1011.93 1012.42 1012.87 1013.30 1013.72 1014.13 1014.55 1014.97 1015.39 1015.79 1016.16 1016.48 1016.76 1016.97 1017.13 1017.23 1017.30 1017.33 1017.36 1017.38 1017.41 1017.45 1017.50 1017.54 1017.58 1017.59 1017.59 1017.54 1017.47 1017.35 1017.21 1017.04 1016.85 1016.65 1016.42 1016.18 1015.92 1015.64 1015.32
1008.56 1009.25 1009.91 1010.52 1011.09 1011.61 1012.10 1012.56 1013.00 1013.45 1013.90 1014.34 1014.78 1015.20 1015.58 1015.92 1016.19 1016.40 1016.54 1016.64 1016.69 1016.71 1016.73 1016.75 1016.78 1016.83 1016.89 1016.95 1017.00 1017.02 1017.01 1016.96 1016.86 1016.72 1016.54 1016.34 1016.12 1015.89 1015.65 1015.41 1015.16 1014.89 1014.60
1007.53 1008.23 1008.91 1009.56 1010.15 1010.70 1011.22 1011.71 1012.19 1012.67 1013.14 1013.62 1014.08 1014.52 1014.92 1015.26 1015.55 1015.76 1015.91 1016.00 1016.06 1016.08 1016.10 1016.14 1016.18 1016.24 1016.32 1016.39 1016.45 1016.48 1016.46 1016.39 1016.26 1016.09 1015.87 1015.62 1015.36 1015.10 1014.84 1014.60 1014.36 1014.12 1013.87
1006.50 1007.22 1007.91 1008.57 1009.19 1009.77 1010.31 1010.83 1011.33 1011.83 1012.33 1012.83 1013.32 1013.78 1014.20 1014.57 1014.87 1015.10 1015.26 1015.37 1015.44 1015.48 1015.52 1015.57 1015.63 1015.71 1015.79 1015.88 1015.95 1015.97 1015.95 1015.86 1015.70 1015.49 1015.22 1014.93 1014.63 1014.33 1014.06 1013.81 1013.58 1013.38 1013.17
1005.53 1006.24 1006.94 1007.62 1008.26 1008.86 1009.42 1009.96 1010.48 1011.00 1011.51 1012.03 1012.53 1013.01 1013.46 1013.85 1014.18 1014.44 1014.64 1014.77 1014.86 1014.93 1014.99 1015.05 1015.12 1015.21 1015.31 1015.40 1015.47 1015.49 1015.45 1015.34 1015.16 1014.91 1014.60 1014.27 1013.93 1013.60 1013.31 1013.05 1012.84 1012.66 1012.50
1004.59 1005.31 1006.03 1006.72 1007.38 1008.00 1008.58 1009.13 1009.66 1010.18 1010.71 1011.23 1011.75 1012.25 1012.72 1013.14 1013.50 1013.80 1014.03 1014.21 1014.33 1014.42 1014.49 1014.56 1014.64 1014.73 1014.82 1014.91 1014.96 1014.97 1014.92 1014.79 1014.58 1014.30 1013.97 1013.61 1013.24 1012.89 1012.58 1012.32 1012.12 1011.96 1011.84
1003.69 1004.42 1005.15 1005.87 1006.55 1007.18 1007.78 1008.34 1008.88 1009.41 1009.94 1010.47 1010.99 1011.51 1012.00 1012.46 1012.86 1013.19 1013.46 1013.67 1013.82 1013.92 1014.01 1014.08 1014.15 1014.22 1014.29 1014.35 1014.38 1014.37 1014.30 1014.16 1013.94 1013.65 1013.30 1012.92 1012.54 1012.18 1011.86 1011.59 1011.39 1011.25 1011.14
1002.78 1003.54 1004.30 1005.05 1005.75 1006.41 1007.02 1007.60 1008.14 1008.68 1009.21 1009.74 1010.28 1010.81 1011.33 1011.81 1012.24 1012.62 1012.92 1013.15 1013.32 1013.43 1013.51 1013.57 1013.61 1013.65 1013.68 1013.70 1013.70 1013.66 1013.57 1013.41 1013.19 1012.90 1012.55 1012.18 1011.79 1011.43 1011.10 1010.84 1010.63 1010.49 1010.39
1001.90 1002.69 1003.49 1004.27 1005.01 1005.69 1006.32 1006.91 1007.47 1008.01 1008.55 1009.09 1009.64 1010.18 1010.72 1011.22 1011.69 1012.09 1012.42 1012.67 1012.84 1012.95 1013.01 1013.03 1013.03 1013.02 1013.00 1012.97 1012.93 1012.86 1012.74 1012.58 1012.35 1012.07 1011.74 1011.38 1011.01 1010.65 1010.33 1010.06 1009.85 1009.69 1009.58
1001.09 1001.92 1002.75 1003.57 1004.34 1005.05 1005.71 1006.32 1006.90 1007.46 1008.00 1008.55 1009.11 1009.67 1010.22 1010.74 1011.22 1011.64 1011.98 1012.23 1012.40 1012.49 1012.52 1012.49 1012.44 1012.37 1012.29 1012.21 1012.12 1012.02 1011.88 1011.71 1011.50 1011.24 1010.93 1010.59 1010.24 1009.90 1009.58 1009.30 1009.07 1008.89 1008.76
1000.46 1001.31 1002.18 1003.02 1003.82 1004.56 1005.25 1005.89 1006.49 1007.06 1007.62 1008.18 1008.74 1009.31 1009.87 1010.40 1010.88 1011.30 1011.64 1011.89 1012.04 1012.10 1012.09 1012.02 1011.91 1011.78 1011.65 1011.51 1011.38 1011.24 1011.09 1010.92 1010.72 1010.48 1010.20 1009.89 1009.56 1009.23 1008.91 1008.63 1008.38 1008.18 1008.02
1000.13 1000.98 1001.85 1002.71 1003.53 1004.30 1005.01 1005.67 1006.29 1006.88 1007.45 1008.02 1008.59 1009.15 1009.70 1010.23 1010.70 1011.11 1011.44 1011.66 1011.79 1011.82 1011.77 1011.66 1011.51 1011.33 1011.15 1010.97 1010.80 1010.64 1010.48 1010.31 1010.12 1009.90 1009.64 1009.36 1009.05 1008.73 1008.42 1008.12 1007.86 1007.63 1007.44
1000.17 1001.00 1001.85 1002.70 1003.53 1004.30 1005.03 1005.71 1006.34 1006.94 1007.52 1008.09 1008.66 1009.21 1009.74 1010.25 1010.70 1011.08 1011.38 1011.58 1011.68 1011.69 1011.61 1011.47 1011.28 1011.07 1010.86 1010.66 1010.47 1010.30 1010.13 1009.96 1009.78 1009.58 1009.34 1009.07 1008.78 1008.47 1008.15 1007.85 1007.56 1007.30 1007.08
1000.61 1001.40 1002.21 1003.03 1003.84 1004.61 1005.33 1006.01 1006.65 1007.25 1007.83 1008.39 1008.93 1009.46 1009.97 1010.44 1010.85 1011.20 1011.46 1011.64 1011.71 1011.70 1011.60 1011.45 1011.25 1011.03 1010.81 1010.60 1010.41 1010.23 1010.06 1009.90 1009.73 1009.53 1009.31 1009.05 1008.76 1008.45 1008.13 1007.80 1007.49 1007.20 1006.94
1001.42 1002.14 1002.89 1003.66 1004.43 1005.17 1005.87 1006.54 1007.17 1007.76 1008.32 1008.86 1009.37 1009.86 1010.32 1010.74 1011.11 1011.42 1011.65 1011.79 1011.85 1011.82 1011.72 1011.57 1011.38 1011.18 1010.96 1010.77 1010.58 1010.41 1010.25 1010.09 1009.92 1009.72 1009.50 1009.23 1008.94 1008.62 1008.28 1007.94 1007.60 1007.28 1006.98
1002.50 1003.13 1003.81 1004.52 1005.22 1005.92 1006.59 1007.22 1007.82 1008.39 1008.92 1009.42 1009.89 1010.33 1010.74 1011.11 1011.43 1011.69 1011.88 1012.00 1012.04 1012.01 1011.93 1011.79 1011.63 1011.45 1011.26 1011.09 1010.92 1010.76 1010.60 1010.44 1010.26 1010.05 1009.81 1009.53 1009.22 1008.88 1008.52 1008.15 1007.78 1007.42 1007.07
1003.73 1004.27 1004.86 1005.49 1006.13 1006.77 1007.38 1007.98 1008.53 1009.06 1009.55 1010.00 1010.43 1010.82 1011.17 1011.49 1011.75 1011.96 1012.12 1012.22 1012.25 1012.23 1012.16 1012.05 1011.92 1011.77 1011.62 1011.46 1011.31 1011.16 1011.00 1010.82 1010.62 1010.39 1010.12 1009.81 1009.47 1009.09 1008.70 1008.29 1007.88 1007.48 1007.09
1004.98 1005.44 1005.95 1006.50 1007.06 1007.63 1008.19 1008.73 1009.23 1009.71 1010.16 1010.56 1010.94 1011.28 1011.58 1011.84 1012.06 1012.23 1012.35 1012.43 1012.46 1012.44 1012.39 1012.30 1012.20 1012.08 1011.95 1011.81 1011.66 1011.50 1011.32 1011.12 1010.88 1010.61 1010.30 1009.95 1009.56 1009.14 1008.70 1008.26 1007.81 1007.36 1006.92
1006.22 1006.60 1007.04 1007.50 1007.99 1008.48 1008.98 1009.45 1009.91 1010.33 1010.73 1011.09 1011.42 1011.71 1011.96 1012.18 1012.36 1012.50 1012.59 1012.65 1012.67 1012.66 1012.61 1012.54 1012.45 1012.34 1012.22 1012.07 1011.91 1011.73 1011.51 1011.26 1010.98 1010.65 1010.28 1009.87 1009.43 1008.96 1008.48 1007.98 1007.49 1006.99 1006.51
Thickness
5724 5722 5720 5718 5717 5716 5714 5713 5712 5711 5709 5708 5707 5706 5705 5704 5703 5702 5704 5701 5700 5699 5698 5698 5696 5696 5698 5699 5698 5697 5696 5694 5690 5691 5691 5689 5683 5682 5682 5681 5681 5680 5681
5725 5723 5720 5719 5717 5715 5714 5713 5711 5709 5708 5707 5706 5705 5704 5703 5702 5701 5700 5700 5698 5697 5697 5695 5694 5694 5692 5693 5693 5693 5691 5688 5687 5683 5685 5686 5682 5680 5679 5677 5680 5681 5680
5727 5723 5721 5719 5717 5715 5714 5712 5710 5709 5708 5707 5705 5704 5703 5702 5700 5699 5699 5698 5697 5696 5695 5694 5692 5691 5689 5690 5688 5689 5689 5688 5684 5683 5683 5682 5681 5680 5677 5677 5679 5676 5677
5728 5725 5722 5720 5718 5716 5714 5712 5710 5708 5707 5705 5704 5703 5702 5701 5699 5698 5697 5696 5695 5694 5693 5691 5691 5689 5687 5686 5685 5683 5682 5681 5680 5680 5680 5680 5679 5678 5675 5675 5676 5677 5676
5728 5725 5723 5721 5718 5716 5713 5711 5709 5707 5706 5704 5703 5702 5701 5700 5700 5698 5696 5695 5693 5692 5690 5689 5688 5686 5683 5681 5683 5682 5679 5678 5679 5678 5677 5677 5677 5673 5673 5674 5672 5672 5674
5729 5726 5724 5721 5718 5715 5713 5711 5708 5706 5705 5704 5702 5701 5700 5701 5697 5693 5693 5694 5692 5690 5688 5687 5686 5682 5679 5676 5674 5673 5671 5672 5673 5672 5673 5672 5668 5669 5668 5667 5667 5667 5666
5730 5727 5725 5722 5719 5716 5714 5711 5709 5706 5705 5703 5702 5701 5699 5697 5693 5690 5687 5689 5690 5688 5686 5684 5686 5686 5679 5679 5674 5669 5668 5665 5663 5664 5666 5665 5665 5666 5662 5662 5661 5660 5659
5731 5729 5726 5723 5720 5717 5715 5712 5709 5707 5705 5703 5701 5700 5698 5696 5691 5687 5684 5685 5687 5686 5684 5683 5681 5680 5679 5676 5674 5673 5671 5668 5664 5660 5661 5661 5661 5659 5657 5655 5654 5654 5656
5734 5731 5729 5726 5722 5719 5715 5713 5711 5708 5705 5703 5701 5700 5697 5695 5689 5685 5681 5684 5684 5683 5683 5681 5679 5677 5673 5668 5667 5667 5666 5666 5663 5660 5658 5656 5654 5651 5649 5649 5651 5651 5654
5737 5735 5732 5728 5724 5721 5718 5714 5711 5708 5705 5703 5702 5700 5697 5695 5689 5683 5678 5683 5683 5682 5681 5679 5674 5673 5669 5664 5663 5663 5661 5661 5661 5660 5654 5652 5651 5650 5646 5642 5645 5646 5648
5740 5736 5733 5729 5725 5721 5717 5713 5710 5707 5705 5702 5700 5698 5696 5694 5688 5682 5678 5680 5682 5681 5681 5680 5678 5670 5664 5659 5657 5658 5657 5655 5654 5654 5654 5654 5653 5651 5648 5644 5642 5640 5641
5739 5735 5731 5728 5725 5722 5716 5712 5709 5705 5702 5699 5697 5695 5695 5692 5688 5682 5677 5674 5675 5676 5676 5677 5675 5666 5660 5655 5652 5652 5648 5644 5648 5650 5650 5650 5650 5649 5648 5644 5640 5636 5633
5736 5732 5729 5726 5723 5721 5715 5710 5706 5702 5701 5699 5697 5695 5694 5694 5689 5681 5675 5671 5668 5667 5672 5669 5664 5657 5653 5651 5647 5645 5641 5642 5644 5645 5645 5645 5645 5644 5640 5637 5634 5630 5627
5732 5729 5726 5723 5719 5717 5714 5711 5708 5705 5702 5700 5698 5695 5693 5691 5688 5683 5678 5670 5663 5661 5662 5661 5655 5651 5648 5647 5646 5643 5641 5642 5642 5641 5640 5640 5639 5637 5633 5631 5628 5626 5623
5729 5726 5724 5721 5718 5714 5710 5710 5707 5705 5704 5699 5698 5696 5691 5688 5685 5680 5677 5673 5670 5666 5661 5658 5656 5654 5651 5649 5647 5645 5643 5640 5636 5634 5633 5632 5630 5628 5626 5624 5620 5617 5615
5724 5721 5721 5718 5714 5711 5707 5703 5697 5697 5693 5689 5687 5686 5686 5680 5674 5670 5665 5661 5657 5652 5650 5652 5651 5649 5647 5645 5644 5641 5638 5635 5632 5629 5626 5624 5622 5620 5618 5616 5613 5609 5607
5720 5717 5716 5714 5711 5707 5704 5700 5695 5686 5681 5679 5676 5674 5671 5668 5664 5659 5654 5650 5645 5640 5642 5645 5644 5642 5640 5638 5635 5633 5631 5629 5625 5621 5618 5615 5613 5611 5608 5606 5604 5601 5599
5713 5710 5709 5708 5706 5703 5699 5696 5693 5688 5682 5677 5670 5664 5661 5657 5654 5649 5644 5639 5640 5635 5639 5639 5637 5635 5632 5630 5628 5625 5623 5620 5616 5612 5609 5606 5603 5600 5598 5596 5595 5592 5589
5705 5704 5701 5700 5698 5695 5693 5689 5687 5683 5679 5674 5670 5661 5653 5648 5642 5638 5634 5637 5640 5637 5635 5632 5630 5627 5624 5621 5618 5614 5611 5608 5605 5602 5599 5596 5593 5591 5588 5586 5584 5582 5577
5694 5691 5691 5690 5688 5685 5683 5680 5676 5673 5669 5666 5662 5658 5650 5644 5642 5637 5631 5632 5632 5630 5628 5625 5622 5618 5614 5610 5607 5603 5600 5596 5593 5590 5588 5585 5582 5579 5577 5575 5573 5571 5569
5685 5681 5678 5679 5678 5676 5672 5669 5666 5663 5660 5657 5653 5648 5639 5639 5637 5633 5629 5625 5622 5620 5617 5614 5611 5607 5603 5599 5596 5591 5588 5586 5583 5580 5577 5574 5572 5569 5566 5564 5562 5560 5558
5674 5672 5669 5668 5666 5663 5660 5658 5655 5652 5649 5645 5642 5637 5627 5629 5628 5624 5620 5615 5612 5608 5605 5601 5598 5595 5591 5587 5584 5581 5578 5575 5572 5568 5566 5563 5560 5558 5556 5554 5552 5549 5547
5660 5658 5656 5653 5650 5645 5646 5645 5642 5639 5636 5633 5630 5626 5621 5617 5614 5611 5607 5603 5599 5596 5592 5588 5585 5582 5579 5575 5571 5568 5565 5562 5558 5554 5552 5550 5548 5546 5544 5542 5540 5538 5536
5646 5644 5642 5640 5637 5635 5633 5630 5628 5626 5622 5619 5616 5612 5608 5603 5600 5597 5593 5589 5585 5582 5578 5575 5572 5569 5565 5562 5559 5556 5551 5546 5542 5540 5538 5536 5535 5533 5532 5531 5529 5528 5527
5629 5628 5627 5625 5623 5620 5618 5615 5613 5610 5607 5604 5600 5597 5594 5590 5586 5583 5579 5575 5572 5568 5565 5562 5559 5556 5553 5549 5546 5542 5535 5531 5527 5525 5523 5523 5523 5522 5521 5520 5520 5519 5517
5614 5612 5611 5609 5607 5605 5603 5600 5597 5594 5591 5587 5583 5580 5577 5574 5571 5567 5564 5561 5558 5555 5551 5549 5546 5543 5539 5536 5532 5527 5522 5519 5516 5512 5510 5511 5511 5512 5511 5511 5511 5510 5509